Theta_e
336 348 343 342 341 342 344 348 348 346 344 344 343 343 342 341 341 343 342 340 340 340 341 340 339 338 338 337 335 331 327 325 330 337 340 341 341 341 342 341 344 344 338
337 349 342 341 341 342 343 348 348 348 347 346 346 344 343 341 338 341 339 336 336 337 336 333 333 332 331 328 324 320 317 317 320 328 335 335 338 339 339 339 342 341 340
338 349 341 341 340 343 343 347 348 349 348 348 347 345 342 338 338 339 338 335 334 332 329 327 325 322 320 316 313 310 310 312 315 318 325 333 335 334 336 338 339 338 336
342 349 345 340 340 344 345 347 348 349 349 348 346 344 338 334 337 337 332 332 330 327 325 322 320 316 313 311 311 311 310 310 310 316 326 331 332 326 330 334 339 340 336
343 349 347 336 340 343 349 348 348 349 349 346 344 339 332 330 331 329 327 327 324 323 321 318 315 313 313 315 316 315 313 312 318 336 335 335 333 330 327 331 338 337 338
344 346 349 334 339 338 349 349 349 349 346 343 337 329 327 328 326 324 324 323 320 318 316 315 314 316 317 318 318 315 315 326 333 337 339 335 336 331 327 328 331 332 335
343 343 353 334 336 338 339 346 347 344 342 336 328 324 326 325 322 322 321 320 317 316 316 316 316 318 320 320 322 323 318 326 337 337 339 340 338 330 329 329 333 332 330
340 342 350 340 334 338 337 336 340 339 336 331 325 322 322 322 322 321 320 318 317 318 318 317 317 320 322 323 323 324 324 324 331 336 338 338 339 330 331 329 330 332 329
338 341 348 348 340 338 336 335 334 334 333 330 326 323 321 321 322 322 321 319 316 317 317 316 317 318 321 323 324 324 324 324 337 334 334 335 337 335 332 332 330 332 327
338 339 344 346 347 346 344 337 334 334 333 331 330 327 324 323 325 324 323 321 317 317 317 316 316 317 319 321 323 325 325 324 332 334 333 333 330 334 335 333 332 332 330
338 338 341 343 345 344 342 344 338 334 335 331 335 330 328 337 337 339 333 334 320 318 318 317 316 317 319 321 323 325 326 331 334 333 334 336 330 330 333 334 334 333 333
338 338 340 342 344 344 340 342 345 344 344 344 343 344 341 339 340 338 337 331 325 320 318 320 319 320 324 329 332 327 330 331 333 332 334 336 332 329 333 333 333 334 334
335 338 340 344 346 344 341 342 343 342 343 344 345 345 344 343 343 341 339 340 336 330 332 330 331 331 330 331 331 331 331 333 332 331 331 334 333 333 333 333 334 334 333
338 334 338 343 347 347 344 344 343 341 343 344 345 347 346 346 345 343 339 338 339 336 335 333 332 332 332 333 332 330 331 330 329 330 330 331 333 334 334 335 334 334 332
338 339 336 340 346 348 346 342 343 342 343 343 343 346 345 343 343 341 340 338 337 337 335 335 333 332 333 333 331 330 330 330 330 329 329 331 329 330 335 336 333 333 332
336 339 338 338 342 345 345 343 344 344 343 344 342 342 345 342 341 340 341 339 337 336 334 333 333 333 333 331 331 331 331 330 330 330 329 329 330 326 331 337 335 333 332
334 338 339 339 341 342 341 344 343 341 342 342 340 344 344 344 342 341 338 337 336 336 337 335 334 334 333 333 332 331 333 333 332 332 333 331 330 329 330 336 335 333 333
324 330 338 340 338 342 341 339 338 336 337 337 338 339 342 343 340 335 337 337 334 335 335 335 335 335 335 335 335 335 335 335 336 336 337 336 333 331 338 337 336 334 334
322 326 339 345 340 340 343 340 339 338 338 335 337 337 335 334 325 333 336 334 334 334 334 335 335 337 339 339 338 337 337 338 339 338 338 337 334 337 339 341 339 335 335
322 323 326 341 345 339 341 342 340 338 338 335 334 333 333 331 332 334 335 331 331 333 335 336 337 340 340 341 341 339 339 340 340 339 340 337 337 341 342 342 342 340 336
322 324 324 326 338 349 342 340 340 339 337 336 333 331 331 328 333 329 334 334 334 337 336 336 342 343 343 342 342 342 342 342 342 340 340 339 340 342 342 342 343 339 338
321 323 324 326 327 333 347 348 344 341 338 336 337 334 332 326 329 329 340 339 335 335 339 342 343 344 345 344 344 343 347 344 343 342 340 340 340 341 341 341 341 340 339
319 319 320 323 326 327 329 339 349 350 349 345 340 337 334 334 328 331 341 341 334 336 337 344 345 346 345 344 343 345 347 346 342 342 342 341 341 341 341 340 340 340 340
316 317 319 321 323 325 327 327 334 345 348 348 348 345 341 342 342 342 344 340 342 344 343 347 347 346 347 345 344 343 345 344 345 343 340 341 342 341 341 338 338 339 338
316 317 319 320 322 323 328 329 329 333 336 342 346 347 345 344 348 345 346 347 347 347 346 347 348 347 346 344 345 344 344 344 342 343 342 339 338 338 338 339 336 336 336
316 318 319 320 321 322 324 327 330 331 332 335 340 346 347 348 350 349 347 348 350 350 349 349 350 348 347 345 345 345 345 344 343 342 343 340 341 338 338 337 336 335 334
Wind_Speed
18 23 34 32 29 27 28 29 30 30 29 27 26 25 24 22 21 20 19 17 16 14 13 12 11 10 9 8 8 7 7 7 8 8 8 7 8 7 7 6 8 6 6
23 28 35 33 30 28 29 31 32 31 29 28 26 25 23 22 21 20 19 17 16 14 12 12 11 10 9 7 6 6 6 7 8 7 7 6 5 5 5 5 7 5 5
25 29 35 35 32 30 31 33 34 32 30 28 26 25 23 22 21 20 18 16 15 14 13 12 11 10 8 7 7 7 7 8 8 8 9 5 5 5 4 3 4 4 5
25 28 31 36 34 32 33 34 35 33 31 29 27 25 24 22 21 19 17 16 14 13 12 11 10 9 8 8 8 8 8 8 8 9 5 5 4 3 5 4 4 4 3
24 28 31 39 37 34 34 35 35 34 32 30 27 25 24 23 21 19 18 16 14 13 12 11 10 10 10 9 8 8 8 9 10 7 4 4 3 2 5 5 4 3 4
27 29 32 41 39 37 35 35 35 34 32 31 29 27 26 24 22 20 19 17 15 14 13 12 11 11 9 9 8 7 8 8 8 4 4 3 4 4 5 5 5 3 3
28 29 30 42 40 39 38 36 36 34 33 32 30 28 26 24 22 21 19 17 15 14 12 11 10 10 10 9 8 7 7 7 3 3 3 2 4 7 5 4 3 3 3
30 28 28 41 41 39 37 37 36 35 34 32 30 28 26 24 22 20 18 16 15 13 11 10 9 8 8 8 7 6 5 6 4 4 4 4 4 8 8 5 3 2 2
28 28 28 31 39 40 38 36 35 35 34 33 30 28 25 23 21 19 17 15 14 12 11 10 9 8 8 8 7 6 7 7 5 5 6 6 9 7 10 8 6 4 3
26 27 27 29 30 30 30 36 35 34 33 32 30 27 24 21 20 17 17 16 14 13 11 10 10 9 10 9 9 8 8 7 6 7 6 6 10 9 8 10 9 7 5
23 24 25 28 28 29 28 27 35 34 32 30 28 26 23 14 14 13 14 15 14 13 12 11 11 10 11 11 11 11 10 9 9 8 8 10 8 11 9 9 10 9 7
18 23 24 26 27 27 26 25 26 24 23 22 20 18 17 14 13 14 14 17 15 15 14 13 12 12 12 11 10 12 11 11 11 10 10 11 9 9 10 9 11 11 9
20 20 22 23 24 26 26 25 25 25 23 22 21 19 18 16 14 15 12 13 14 16 12 13 13 13 13 13 12 12 11 12 13 12 12 13 12 10 10 8 11 12 10
13 22 22 20 23 25 25 24 23 25 23 22 22 21 18 18 15 14 14 12 12 13 13 13 12 14 13 14 14 14 13 14 14 14 13 16 15 13 12 10 11 13 13
8 17 24 24 24 24 24 23 22 23 23 22 21 23 21 19 16 15 15 15 15 14 14 14 13 13 13 15 15 16 15 16 16 16 14 15 17 16 15 13 12 13 14
8 10 18 26 28 26 26 23 23 21 21 21 20 20 22 20 17 16 16 17 17 15 14 13 12 12 13 14 16 17 16 16 16 16 16 16 17 17 18 15 14 13 14
5 8 14 23 25 29 29 25 23 23 22 20 21 21 21 22 19 19 20 19 16 15 16 16 15 13 13 14 16 16 16 16 16 17 16 16 17 16 18 17 15 15 16
6 7 10 15 23 28 29 30 27 26 26 24 22 21 22 23 22 24 20 15 14 13 14 15 15 14 13 14 15 15 15 14 14 16 16 15 16 15 14 17 16 18 17
7 6 2 12 18 23 20 22 27 24 23 25 22 22 23 27 29 26 19 17 16 14 14 16 16 14 12 12 15 15 14 15 14 15 15 14 15 15 15 13 15 15 19
6 9 7 4 6 20 16 20 21 20 23 25 29 27 24 26 31 27 20 20 22 17 17 20 18 13 14 12 13 15 15 16 14 15 14 13 15 15 15 15 11 13 15
9 13 14 8 3 7 24 22 19 23 21 25 30 32 33 34 28 30 26 24 22 22 28 26 16 12 16 13 12 15 17 17 16 16 15 14 16 16 16 14 13 14 13
11 10 11 10 6 7 15 14 15 10 19 29 22 30 33 42 37 32 26 24 22 25 10 23 14 13 18 15 10 12 8 11 14 17 16 15 16 16 16 13 14 14 14
11 11 10 11 11 9 9 12 13 12 15 18 27 33 35 37 44 37 28 24 23 27 26 28 18 19 19 17 18 12 6 6 2 8 14 16 15 15 14 15 15 15 15
11 11 9 9 11 10 9 10 15 19 21 23 22 21 27 32 31 29 28 25 24 26 23 21 18 19 22 18 13 19 18 7 5 5 8 12 13 12 11 10 9 11 13
12 12 11 10 9 9 10 10 14 20 23 22 21 32 26 30 25 29 25 24 26 21 23 24 20 23 23 20 17 12 18 16 14 7 7 9 13 13 12 10 10 10 9
11 11 14 13 10 9 9 10 13 18 21 23 24 25 24 22 23 24 25 26 22 21 25 22 22 23 24 19 17 17 14 14 13 12 9 11 8 11 11 11 11 10 9
Wind_Direction
167 167 170 173 174 175 176 176 173 171 167 165 163 163 159 158 158 160 158 157 155 154 151 148 144 143 142 139 136 128 124 116 109 104 101 100 103 104 97 83 82 92 119
166 165 171 174 177 178 179 179 175 174 171 169 167 167 165 163 164 164 165 162 159 158 155 153 151 147 148 148 143 143 137 131 125 124 114 90 99 110 97 89 98 96 121
165 166 169 176 179 181 181 179 177 177 174 173 171 172 169 168 167 167 165 163 160 159 158 156 153 148 151 151 149 139 137 139 140 136 116 120 101 102 97 94 97 93 124
168 166 168 177 181 184 182 181 180 179 177 175 176 175 172 171 168 169 167 166 162 160 157 155 155 152 152 146 144 138 136 133 128 114 115 122 113 122 106 106 115 114 132
177 172 174 176 182 186 186 183 182 182 181 178 177 177 176 172 171 171 169 166 165 163 160 160 161 158 155 148 143 137 141 136 124 100 119 112 140 150 125 118 102 94 137
181 176 183 176 181 187 189 187 186 186 184 181 180 178 179 176 174 173 171 171 170 168 168 167 168 163 158 154 152 151 157 145 117 138 136 116 139 164 138 134 130 139 149
184 178 181 179 183 188 191 191 190 189 187 185 182 181 181 180 179 177 175 176 176 175 174 172 174 171 170 167 166 164 170 162 176 183 180 173 174 186 172 166 139 125 139
182 179 180 182 184 190 194 196 195 193 192 189 186 183 183 184 184 182 182 183 183 182 181 183 183 184 185 183 185 179 186 177 222 220 227 223 207 200 199 197 197 178 191
184 179 178 183 186 189 195 198 199 198 197 194 191 189 187 188 189 190 192 193 190 191 192 194 197 198 204 207 208 212 211 203 233 242 235 238 236 214 213 213 218 219 222
183 182 181 183 185 189 195 200 202 202 201 199 198 196 194 193 195 198 204 206 204 204 206 206 208 214 219 223 228 233 234 241 243 253 246 239 242 225 216 220 223 224 234
186 186 185 185 187 187 192 202 204 206 206 205 205 204 201 194 203 207 213 227 220 220 218 220 222 226 229 234 236 240 245 255 253 254 259 249 243 222 220 223 228 228 235
195 193 191 188 191 189 191 196 200 204 207 205 207 208 200 203 210 204 216 227 226 229 227 232 233 232 233 235 246 247 248 258 257 254 256 257 231 219 222 232 232 229 233
203 202 202 192 194 193 192 194 198 201 204 207 209 206 205 207 211 210 212 224 223 234 232 234 234 230 229 235 241 240 244 251 257 255 253 257 234 231 234 240 235 228 235
210 205 206 202 201 198 194 196 198 199 203 205 208 208 204 210 211 212 214 226 226 229 231 231 239 238 237 239 242 247 246 250 256 256 253 255 242 234 240 246 239 227 232
217 211 209 204 207 202 200 198 200 202 205 208 208 210 204 211 216 215 220 218 225 225 231 233 236 241 245 247 247 247 247 247 251 253 254 254 254 242 243 244 242 229 235
238 228 219 208 203 205 204 200 201 203 209 211 212 217 214 211 215 218 220 227 228 232 232 238 241 243 247 251 252 249 248 252 252 251 250 252 258 252 240 243 241 230 240
261 233 222 219 211 203 205 207 207 210 209 215 217 221 217 216 215 217 225 225 228 234 229 224 224 235 245 250 255 253 253 250 252 252 249 249 251 257 242 236 239 233 240
332 282 240 221 213 209 205 208 216 223 215 217 219 222 222 218 218 232 230 227 221 231 240 245 233 215 232 246 254 253 253 252 253 251 249 248 249 246 235 239 244 236 239
340 355 226 218 213 214 225 221 218 221 221 218 218 218 228 233 235 231 231 227 217 221 226 237 244 241 224 232 247 251 249 252 249 249 250 248 241 240 236 231 249 245 238
353 9 29 291 219 217 239 232 223 217 227 222 224 226 223 233 237 230 222 239 237 227 223 225 220 235 244 232 243 249 248 248 247 246 246 244 242 238 240 244 246 249 243
360 357 2 12 287 203 219 211 222 221 224 232 224 233 226 234 233 237 238 220 226 223 224 214 203 211 237 231 244 248 252 246 246 243 240 240 242 239 246 248 244 257 248
350 359 346 341 329 248 223 228 230 205 225 236 232 233 230 239 234 236 230 219 213 216 263 244 208 212 236 217 226 245 266 229 232 240 237 236 242 243 247 246 250 251 252
343 346 335 325 320 312 287 254 244 241 232 225 226 226 229 233 237 229 232 218 216 219 224 231 215 205 226 213 220 235 250 246 303 201 231 237 238 240 248 248 252 250 248
328 334 332 326 318 310 300 274 259 247 236 230 235 253 233 227 221 220 220 226 225 220 225 223 214 212 225 218 208 229 247 261 230 237 210 226 234 242 241 234 241 242 247
325 325 320 319 317 301 290 273 259 247 254 252 244 236 222 225 219 219 221 223 220 222 228 220 209 210 219 228 205 213 224 230 239 264 256 206 223 233 227 238 237 241 240
319 320 319 314 312 306 277 269 261 262 258 256 247 243 237 231 228 220 221 218 222 227 226 223 215 211 216 217 225 220 215 211 222 230 243 253 210 201 226 228 231 241 246